Torna al catalogo

STARLINK-31071

AttivoComunicazioniVLEO
NORAD 58602·PAYLOAD·🇺🇸 United States

Lanciato Dec 19, 2023 da Cape Canaveral Space Force Station

Loading…

Prossimi Passaggi (prossime 24 ore)

TLE

AggiornatoSource: CelesTrak SupGP

Epoca: Sep 14, 2026, 21:18 UTC

1 58602C 23200P   26257.88798611  .00044048  00000+0  15954-2 0  2570
2 58602  43.0045  20.1858 0001967 273.8708 163.2860 15.27557200    12

Traccia STARLINK-31071 in tempo reale con AllMySat

Download on the App Store